Clarksville, TN

1:54 AM CST on January 17, 2017 (GMT -0600)
Outlaw

Weather History for KCKV - July, 2013

Change the Weather History Date:

Friday, July 5, 2013

  Actual Average Record
Temperature  
Mean Temperature 74 °F 78 °F  
Max Temperature 83 °F 89 °F 105 °F (2012)
Min Temperature 65 °F 67 °F 47 °F (1968)
Degree Days  
Heating Degree Days 0 0  
Month to date heating degree days 0 0  
Since 1 June heating degree days 3  
Since 1 July heating degree days 0 0  
Cooling Degree Days 9 13  
Month to date cooling degree days 30 65  
Year to date cooling degree days 500  
Since 1 June cooling degree days 351  
Growing Degree Days 23 (Base 50)    
Moisture  
Dew Point 68 °F    
Average Humidity 79    
Maximum Humidity 100    
Minimum Humidity 58    
Precipitation  
Precipitation 0.49 in 0.12 in 3.05 in (1985)
Month to date precipitation 2.15 0.58  
Year to date precipitation 26.68  
Sea Level Pressure  
Sea Level Pressure 30.08 in    
Wind  
Wind Speed 3 mph (SE)    
Max Wind Speed 14 mph    
Max Gust Speed 18 mph    
Visibility 7 miles    
Events Rain , Thunderstorm    
T = Trace of Precipitation, MM = Missing Value Source: NWS Daily Summary

Daily Weather History Graph

Daily Weather History Graph

Search for Another Location

Airport or City:

Trip Planner

Search our weather history database for the weather conditions in past years. The results will help you decide how hot, cold, wet, or windy it might be!

Date:

Astronomy

Jul. 05, 2013 Rise Set
Actual Time 5:36 AM CDT 8:11 PM CDT
Civil Twilight 5:06 AM CDT 8:41 PM CDT
Nautical Twilight 4:28 AM CDT 9:19 PM CDT
Astronomical Twilight 3:46 AM CDT 10:01 PM CDT
Moon 3:34 AM CDT (7/5) 6:07 PM CDT (7/5)
Length of Visible Light 15h 35m
Length of Day
14h 34m
Waning Crescent, 6% of the Moon is Illuminated
Jul 5
Waning Crescent
Jul 8
New
Jul 15
First Quarter
Jul 22
Full
Jul 29
Last Quarter

Hourly Weather History & Observations

Time (CDT) Temp. Heat Index Dew Point Humidity Pressure Visibility Wind Dir Wind Speed Gust Speed Precip Events Conditions
12:08 AM 64.4 °F - 64.4 °F 100% 30.07 in 1.5 mi Calm Calm - N/A   Scattered Clouds
12:32 AM 64.4 °F - 64.4 °F 100% 30.07 in 2.0 mi East 3.5 mph - N/A   Clear
12:52 AM 64.9 °F - 63.0 °F 93% 30.06 in 1.8 mi Calm Calm - N/A   Partly Cloudy
1:25 AM 64.4 °F - 64.4 °F 100% 30.06 in 2.5 mi Calm Calm - N/A   Mostly Cloudy
1:50 AM 64.4 °F - 64.4 °F 100% 30.05 in 2.5 mi Calm Calm - N/A   Mostly Cloudy
1:52 AM 64.9 °F - 64.0 °F 97% 30.04 in 3.0 mi Calm Calm - N/A   Overcast
1:59 AM 66.2 °F - 64.4 °F 94% 30.05 in 3.0 mi Calm Calm - N/A   Overcast
2:52 AM 66.0 °F - 64.0 °F 93% 30.04 in 4.0 mi Calm Calm - N/A   Overcast
3:29 AM 66.2 °F - 64.4 °F 94% 30.05 in 5.0 mi Calm Calm - N/A   Overcast
3:52 AM 66.0 °F - 64.9 °F 96% 30.05 in 6.0 mi North 3.5 mph - N/A   Overcast
4:01 AM 66.2 °F - 64.4 °F 94% 30.05 in 6.0 mi North 3.5 mph - N/A   Overcast
4:52 AM 66.9 °F - 64.9 °F 93% 30.05 in 6.0 mi Calm Calm - N/A   Overcast
5:45 AM 66.2 °F - 64.4 °F 94% 30.07 in 5.0 mi Calm Calm - N/A   Overcast
5:52 AM 66.0 °F - 64.9 °F 96% 30.06 in 5.0 mi Calm Calm - N/A   Overcast
6:52 AM 66.9 °F - 66.0 °F 97% 30.07 in 7.0 mi Calm Calm - N/A   Overcast
7:02 AM 68.0 °F - 66.2 °F 94% 30.08 in 7.0 mi Calm Calm - N/A   Overcast
7:10 AM 68.0 °F - 66.2 °F 94% 30.09 in 7.0 mi ESE 3.5 mph - N/A   Overcast
7:52 AM 69.1 °F - 66.9 °F 93% 30.08 in 10.0 mi Calm Calm - N/A   Overcast
8:24 AM 71.6 °F - 66.2 °F 83% 30.10 in 10.0 mi Calm Calm - N/A   Overcast
8:52 AM 71.1 °F - 68.0 °F 90% 30.10 in 10.0 mi Calm Calm - N/A   Overcast
9:36 AM 71.6 °F - 68.0 °F 88% 30.12 in 10.0 mi Calm Calm - N/A   Overcast
9:43 AM 73.4 °F - 68.0 °F 83% 30.12 in 10.0 mi Calm Calm - N/A   Overcast
9:52 AM 73.0 °F - 68.0 °F 84% 30.11 in 10.0 mi Calm Calm - N/A   Overcast
10:20 AM 71.6 °F - 68.0 °F 88% 30.12 in 2.0 mi Calm Calm - 0.01 in Rain Light Rain
10:30 AM 73.4 °F - 68.0 °F 83% 30.11 in 3.0 mi Calm Calm - 0.01 in Rain Light Rain
10:45 AM 71.6 °F - 69.8 °F 94% 30.11 in 5.0 mi Calm Calm - 0.01 in   Overcast
10:52 AM 73.0 °F - 69.1 °F 87% 30.10 in 3.0 mi Calm Calm - 0.01 in Rain Light Rain
11:03 AM 73.4 °F - 69.8 °F 88% 30.11 in 7.0 mi Calm Calm - 0.00 in   Overcast
11:41 AM 77.0 °F - 69.8 °F 78% 30.11 in 10.0 mi Calm Calm - 0.00 in   Overcast
11:52 AM 75.9 °F - 68.0 °F 76% 30.10 in 10.0 mi Calm Calm - 0.00 in   Overcast
12:26 PM 77.0 °F - 68.0 °F 74% 30.11 in 10.0 mi Variable 3.5 mph - N/A   Overcast
12:52 PM 79.0 °F - 69.1 °F 72% 30.09 in 10.0 mi Calm Calm - N/A   Mostly Cloudy
1:17 PM 78.8 °F - 68.0 °F 69% 30.09 in 10.0 mi Calm Calm - N/A   Mostly Cloudy
1:28 PM 80.6 °F 83.9 °F 69.8 °F 70% 30.09 in 10.0 mi South 4.6 mph - N/A   Overcast
1:52 PM 81.0 °F 83.8 °F 68.0 °F 65% 30.07 in 10.0 mi ESE 4.6 mph - N/A   Mostly Cloudy
2:52 PM 82.0 °F 84.5 °F 66.9 °F 60% 30.06 in 10.0 mi Variable 3.5 mph - N/A   Scattered Clouds
3:52 PM 80.1 °F 82.7 °F 68.0 °F 67% 30.06 in 10.0 mi SE 5.8 mph - N/A   Mostly Cloudy
4:04 PM 78.8 °F - 69.8 °F 74% 30.07 in 10.0 mi SSE 9.2 mph 18.4 mph N/A Thunderstorm Mostly Cloudy
4:28 PM 71.6 °F - 69.8 °F 94% 30.08 in 1.8 mi SSE 9.2 mph - 0.09 in Rain , Thunderstorm Heavy Thunderstorms and Rain
4:39 PM 71.6 °F - 69.8 °F 94% 30.08 in 3.0 mi SSE 8.1 mph - 0.11 in Rain , Thunderstorm Light Thunderstorms and Rain
4:52 PM 72.0 °F - 70.0 °F 93% 30.07 in 5.0 mi SSW 5.8 mph - 0.12 in Rain , Thunderstorm Light Rain
5:00 PM 71.6 °F - 69.8 °F 94% 30.08 in 2.5 mi SSW 4.6 mph - 0.01 in Rain Light Rain
5:09 PM 71.6 °F - 69.8 °F 94% 30.08 in 6.0 mi SSW 5.8 mph - 0.02 in Rain Light Rain
5:24 PM 71.6 °F - 69.8 °F 94% 30.08 in 2.5 mi WNW 3.5 mph - 0.04 in Rain Rain
5:29 PM 71.6 °F - 69.8 °F 94% 30.08 in 0.8 mi Calm Calm - 0.09 in Rain Heavy Rain
5:45 PM 73.4 °F - 69.8 °F 88% 30.07 in 2.5 mi South 4.6 mph - 0.19 in Rain Rain
5:52 PM 73.0 °F - 70.0 °F 90% 30.06 in 4.0 mi SSW 5.8 mph - 0.20 in Rain Light Rain
6:52 PM 73.0 °F - 72.0 °F 96% 30.05 in 10.0 mi SE 8.1 mph - 0.00 in   Mostly Cloudy
7:05 PM 73.4 °F - 71.6 °F 94% 30.07 in 10.0 mi SSE 6.9 mph - N/A Thunderstorm Mostly Cloudy
7:34 PM 73.4 °F - 69.8 °F 88% 30.07 in 8.0 mi SSE 8.1 mph 17.3 mph 0.01 in Rain , Thunderstorm Light Thunderstorms and Rain
7:52 PM 71.1 °F - 68.0 °F 90% 30.06 in 9.0 mi SSE 8.1 mph - 0.01 in Rain , Thunderstorm Light Thunderstorms and Rain
8:31 PM 69.8 °F - 68.0 °F 94% 30.06 in 10.0 mi ESE 11.5 mph - 0.01 in Rain Light Rain
8:52 PM 70.0 °F - 68.0 °F 93% 30.06 in 10.0 mi ESE 6.9 mph - 0.01 in   Overcast
9:52 PM 70.0 °F - 68.0 °F 93% 30.08 in 10.0 mi Calm Calm - 0.04 in Thunderstorm Overcast
10:01 PM 69.8 °F - 68.0 °F 94% 30.09 in 10.0 mi Calm Calm - N/A   Overcast
10:09 PM 71.6 °F - 68.0 °F 88% 30.09 in 10.0 mi Variable 3.5 mph - N/A   Overcast
10:16 PM 69.8 °F - 68.0 °F 94% 30.09 in 10.0 mi ENE 3.5 mph - N/A   Overcast
10:29 PM 69.8 °F - 68.0 °F 94% 30.09 in 10.0 mi Calm Calm - 0.00 in   Overcast
10:42 PM 69.8 °F - 69.8 °F 100% 30.10 in 10.0 mi ESE 5.8 mph - 0.00 in Rain Light Rain
10:52 PM 71.1 °F - 69.1 °F 93% 30.09 in 10.0 mi SE 4.6 mph - 0.00 in   Overcast
11:41 PM 71.6 °F - 69.8 °F 94% 30.09 in 7.0 mi SE 6.9 mph - 0.00 in Rain Light Rain
11:52 PM 71.1 °F - 69.1 °F 93% 30.07 in 3.0 mi SSE 4.6 mph - 0.05 in Rain Heavy Rain